Погода в Дубителе

Россия / Республика Мордовия     54°09′36″N   42°34′40″E
темп.,
°C
ветер,
м/с
пор.,
м/с
влажн.,
%
обл.,
%
осадки,
мм/ч
давл.,
гПа
погр.,
м
24 мая, вт
вт2400:00+3юз358797 0.0 100476
03:00+4зюз3789100 0.0 1004148
06:00+5сз2579100 0.0 1004217
09:00+10з2451100 0.0 1004925
12:00+11зсз61040100 0.0 10042354
15:00+8ссз3571100 0.2 1006843
18:00+4сз3793100 0.5 1008549
21:00+4сз279395 0.8 1010265
25 мая, ср
ср2500:00+1сз239666 0.0 101149
03:00−1сз22965 0.0 101232
06:00+2сз24915 0.0 1013179
09:00+7сз34575 0.0 10141165
12:00+10сз4546100 0.1 10142075
15:00+10зсз455196 0.1 10151557
18:00+10з34555 0.1 10141296
21:00+4юз358445 0.1 101584
26 мая, чт
чт2600:00+3юз378599 0.0 1015126
03:00+4юз3108085 0.0 1014238
06:00+6юз2683100 0.1 1013369
09:00+10зюз367099 0.1 1012942
12:00+15з475489 0.0 10111762
15:00+17з364324 0.1 10091900
18:00+16з1162100 0.0 100879
21:00+12юз3784100 0.1 1008200
27 мая, пт
пт2700:00+10ю1298100 0.9 100654
03:00+10юв31099100 4.1 1002473
06:00+11ююз3998100 2.9 999600
09:00+10з61196100 5.5 1000856
12:00+15з6107243 0.6 10011411
15:00+14з6108537 2.4 10021051
18:00+13з611850 1.5 10031053
21:00+10зюз412881 1.5 1005492
28 мая, сб
сб2800:00+8юз31092100 0.0 1006234
03:00+8ююз41192100 0.0 1005277
06:00+10ю61692100 0.6 1002699
09:00+12юз61396100 3.0 1001939
12:00+12юз51195100 3.6 1003807
15:00+11юз4109323 4.6 1005697
18:00+13юз497783 0.3 1006825
21:00+11ююз41191100 0.4 1008359